Regional Weather Roundup
Issued by NWS

Home | Current Version | Previous Version | Graphics & Text | Print | Product List | Glossary On
Versions: 1 2 3 4 5 6 7 8 9 10 11 12 13 14 15 16 17 18 19 20 21 22 23 24 25 26 27 28 29 30 31 32 33 34 35 36 37 38 39 40 41 42 43 44 45 46 47 48 49 50
000
ASUS43 KTOP 271308
RWRKS

WEATHER ROUNDUP FOR KANSAS
NATIONAL WEATHER SERVICE GOODLAND KS
800 AM CDT WED JUL 27 2016

NOTE:  "FAIR" INDICATES FEW OR NO CLOUDS BELOW 12,000 FEET WITH NO
SIGNIFICANT WEATHER AND/OR OBSTRUCTIONS TO VISIBILITY.

KSZ001>006-013>018-027>032-041>047-271400-
NORTHWEST KANSAS

CITY           SKY/WX    TMP DP  RH WIND       PRES   REMARKS
GOODLAND       SUNNY     63  60  90 SE6       30.10F
HAYS           CLOUDY    72  57  60 NW7       30.01F
HILL CITY      CLOUDY    69  60  73 W3        30.03S
RUSSELL        CLOUDY    73  70  90 S15       29.94F
$$

KSZ061>065-074>080-084>089-271400-
SOUTHWEST KANSAS

CITY           SKY/WX    TMP DP  RH WIND       PRES   REMARKS
DODGE CITY     MOSUNNY   69  65  86 E8        30.09S
ELKHART          N/A     70  64  81 SE8         N/A
GARDEN CITY    MOSUNNY   69  64  84 E23G30    30.06F
GREAT BEND     CLOUDY    72  64  78 SE7       30.02F
LIBERAL        PTSUNNY   72  64  78 SE5       30.07F
PRATT          PTSUNNY   69  68  96 E6        30.06F FOG
$$

KSZ066>073-081>083-090>101-271400-
SOUTHEAST KANSAS

CITY           SKY/WX    TMP DP  RH WIND       PRES   REMARKS
CHANUTE        SUNNY     77  72  84 E3        29.98F
COFFEYVILLE    CLOUDY    75  73  93 W6        29.99R
HUTCHINSON     MOSUNNY   73  71  93 SE3       30.01F
NEWTON         SUNNY     73  71  93 CALM      30.02F
PARSONS        MOSUNNY   76  73  91 CALM      30.00R
WICHITA INTL   PTSUNNY   76  72  87 E5        30.02S
WICHITA JABRA  MOSUNNY   73  73 100 VRB3      30.01F
WICHITA MCCONL MOSUNNY   74  72  92 NE3       30.02S
WINFIELD       CLOUDY    74  72  93 E5        30.02R
$$

KSZ007>012-019>026-033>040-048>060-102>105-271400-
NORTHEAST KANSAS

CITY           SKY/WX    TMP DP  RH WIND       PRES   REMARKS
CONCORDIA      CLOUDY    73  67  81 S8        29.97R
EMPORIA        CLOUDY    73  70  90 VRB3      30.00F
LAWRENCE       MOSUNNY   71  68  90 CALM      29.98F
MANHATTAN      PTSUNNY   72  69  90 S7        29.94F
MARYSVILLE     MOSUNNY   73  68  83 S10       29.96R
OLATHE IND     MOSUNNY   75  69  81 E3        29.99F
OLATHE EXE     MOSUNNY   74  68  81 CALM      29.98
SALINA         PTSUNNY   74  69  85 S12       29.95F
TOPEKA BILLARD SUNNY     72  68  87 SE7       29.96F
TOPEKA FORBES  SUNNY     75  70  84 SE8       29.96F
$$




USA.gov is the U.S. government's official web portal to all federal, state and local government web resources and services.